Starlink 4474

operational
NORAD ID: 53547 Int'l Des: 2022-101 Owner: SPXS Country: US Constellation: starlink
LEOCIRCULAR

Starlink 4474について

説明を読み込み中...

リアルタイム位置

3D地球を読み込み中...

次回通過

高度履歴

Altitude vs Time

uPlot chart will show altitude changes over time

軌道要素

1 53547U 22101W 26034.51226984 -.00002518 00000-0 -14014-3 0 9993
2 53547 53.2163 217.5502 0001318 101.0477 259.0663 15.08847765191813
Epoch: Feb 3, 2026 • Age: 21 hours

現在のステータス

高度 545.3 km
速度 7.60 km/s
衛星直下点 52.30°N, 13.5°E
打ち上げ日 Aug 19, 2022
運用期間 3.4 years
タイプ internet

技術仕様

分類 Payload
質量 300.00 kg
乾燥質量 290.00 kg
総質量 300.00 kg
長さ 0.20 m
直径 2.80 m
スパン 9.00 m
形状 Box + pan
製造者 SPXS
バスタイプ Starlink
フェーズステータス In Orbit
所有者/国 SPXS/US

大規模コンステレーション

Loading constellations...